Simultaneous Nadir Overpasses (SNOs) Predictions

Prediction of SNOs between GOES-16 and METOP-C Satellite Orbit:

Table of predicted SNOs for the next 14.0 days since TLE Epoch: 9/8/2024
Index Date Time (GOES-16) GOES-16 Lat,Lon METOP-C Lat,Lon Distance(km) Time Diff (sec)
1 09/09/2024 02:44:20 0.05, -75.20 -0.70, -78.58 384.83 80
2 09/10/2024 02:26:22 0.04, -75.21 0.39, -73.59 184.22 80
3 09/11/2024 14:42:36 -0.04, -75.21 0.59, -78.16 335.15 80
4 09/12/2024 14:24:38 -0.04, -75.22 -0.51, -73.17 234.12 80
5 09/14/2024 02:40:59 0.04, -75.22 -0.53, -77.76 289.71 80
6 09/15/2024 02:20:20 0.04, -75.23 0.58, -72.77 279.87 80
7 09/16/2024 14:39:14 -0.03, -75.24 0.41, -77.34 238.20 80
8 09/17/2024 14:21:14 -0.03, -75.25 -0.66, -72.33 331.97 80
9 09/19/2024 02:40:16 0.03, -75.27 -0.36, -76.93 190.34 80
10 09/20/2024 02:16:57 0.03, -75.28 0.78, -71.94 380.18 80
11 09/21/2024 14:35:49 -0.03, -75.31 0.23, -76.51 136.61 80
